Torna al catalogo

SL-16 DEB

AttivoLEO
NORAD 22645·DEBRIS·🇷🇺 Russia

Lanciato Mar 26, 1993 da Baikonur Cosmodrome

Loading…

Prossimi Passaggi (prossime 24 ore)

TLE

AggiornatoSource: Space-Track

Epoca: Sep 14, 2026, 04:08 UTC

1 22645U 93016AF  26257.17230338  .00000407  00000-0  34621-3 0  9997
2 22645  70.9863 167.2890 0167956 212.2457 146.8297 13.86819181684678

Traccia SL-16 DEB in tempo reale con AllMySat

Download on the App Store